Wind_Speed
14 15 16 17 18 19 20 20 20 21 21 21 21 21 21 21 20 19 18 17 16 15 14 13 12 12 12 12 12 13 14 15 15 16 17 17 18 19 20 22 23 23 25
16 17 18 18 20 21 21 22 22 23 23 23 23 22 22 22 21 20 20 19 17 16 15 14 14 13 13 13 13 13 14 15 15 16 17 17 17 19 20 21 22 23 24
18 19 20 20 21 22 23 24 24 25 25 25 24 24 24 23 22 22 21 20 19 18 17 16 15 15 15 15 15 14 15 15 15 16 17 18 18 18 20 21 22 23 24
19 21 22 23 24 25 25 26 26 27 27 27 27 26 26 25 25 24 23 23 21 20 19 18 17 17 17 16 16 16 16 16 17 17 17 18 19 19 19 21 22 22 23
22 23 24 25 26 27 28 28 29 29 29 29 29 29 28 28 27 27 26 25 24 23 21 20 20 19 19 18 18 18 18 18 19 18 18 19 20 20 20 21 22 23 23
24 25 26 27 28 29 30 31 31 31 31 31 31 31 31 30 30 30 29 28 27 26 25 23 22 22 21 21 21 20 20 20 20 20 19 19 20 21 22 21 21 22 23
25 27 27 28 30 31 32 33 33 33 34 34 34 34 33 33 33 33 32 31 30 29 28 27 25 24 24 23 23 22 22 22 22 22 21 21 21 21 23 23 22 22 23
28 29 31 32 33 34 35 35 35 36 36 36 37 36 36 36 35 35 34 34 33 32 31 30 29 27 26 26 26 25 24 24 23 23 23 22 22 22 23 23 23 23 24
31 32 34 35 36 36 37 38 38 38 38 39 39 39 38 37 37 36 36 35 35 34 33 32 32 31 29 28 28 27 27 26 25 25 24 24 23 23 24 24 24 23 24
33 35 36 37 38 38 39 40 41 41 41 41 41 40 40 39 38 38 38 37 37 36 35 34 34 33 32 32 31 30 29 28 28 27 26 26 25 24 24 24 24 24 24
37 38 39 40 41 41 42 42 43 43 42 42 41 41 40 39 39 39 39 39 39 37 36 36 35 34 34 34 33 32 31 30 29 29 28 28 27 26 25 24 25 25 24
39 41 42 42 43 43 44 44 44 44 43 43 43 42 40 40 39 39 39 39 40 39 38 37 36 36 36 35 35 34 33 32 31 30 30 29 28 27 27 26 25 25 25
42 43 43 44 44 44 45 45 45 45 45 44 43 43 42 41 40 40 40 39 40 40 39 38 37 37 37 37 36 35 35 34 33 32 31 30 29 29 28 28 27 26 26
44 44 45 45 45 45 46 46 46 46 46 45 45 44 43 42 41 41 41 41 40 40 40 39 39 38 39 38 38 37 36 35 34 33 33 32 31 31 30 29 28 28 28
46 45 46 46 47 47 47 47 47 47 47 47 46 46 46 45 44 43 43 43 43 42 41 41 40 39 39 39 37 37 37 36 35 34 33 33 33 32 31 30 30 29 29
47 47 48 48 48 49 49 48 48 49 49 49 48 48 47 47 46 44 43 43 43 43 42 41 41 41 40 40 39 38 38 38 36 36 35 34 33 33 32 31 30 29 29
49 49 49 49 49 50 50 51 51 50 50 50 49 48 48 46 45 44 43 42 42 42 42 41 41 42 41 41 41 39 39 38 38 37 36 35 34 33 33 32 31 30 30
50 50 50 50 51 52 53 53 53 52 51 49 48 48 47 46 45 44 43 42 42 41 41 41 42 42 43 43 42 41 39 39 39 38 38 37 36 35 34 33 33 32 31
51 51 52 52 53 54 55 54 54 53 52 50 48 47 47 46 45 44 43 42 42 42 42 41 41 42 43 43 43 42 41 40 40 40 39 38 38 37 36 35 34 33 32
53 54 54 55 55 55 55 55 54 53 52 51 49 48 47 45 44 43 43 42 42 42 43 41 40 41 43 43 44 43 42 41 40 40 40 40 38 37 37 36 35 34 33
55 56 57 57 56 56 56 56 55 54 52 51 49 48 47 45 45 44 44 43 43 44 44 43 41 41 43 43 44 44 42 42 41 41 41 40 39 38 38 37 36 35 34
58 58 58 58 57 57 57 56 55 53 52 51 49 48 47 46 45 45 44 44 44 44 44 44 42 41 42 43 44 44 43 42 42 42 41 41 40 40 39 38 37 35 34
59 59 59 58 58 57 57 56 54 53 51 50 49 49 48 47 45 44 43 42 42 41 41 42 41 40 40 43 43 44 43 43 43 43 42 40 41 40 39 38 37 35 34
60 60 59 58 57 57 56 54 53 52 51 50 49 49 48 47 45 43 41 39 38 38 39 39 40 38 38 40 41 42 43 42 43 43 44 42 40 40 39 38 37 36 35
61 60 59 57 56 55 54 53 53 52 51 49 48 47 46 45 43 40 37 36 35 35 36 36 36 37 37 37 39 40 40 42 42 44 44 43 42 41 40 39 38 37 36
60 58 57 56 55 54 53 52 51 50 48 47 45 44 43 41 39 37 35 34 33 33 34 34 34 35 36 36 36 37 39 40 42 43 44 43 41 40 40 39 39 38 37
Wind_Direction
322 324 324 324 324 323 323 323 323 324 325 325 324 325 326 327 327 327 324 323 318 313 307 300 295 291 280 276 275 269 261 252 248 246 244 243 242 241 240 237 234 234 235
317 320 321 320 321 321 320 320 319 319 320 320 320 320 320 320 321 322 321 318 316 313 306 297 292 288 281 274 273 269 264 257 250 248 246 245 246 244 242 239 237 236 236
313 315 317 316 317 318 318 317 317 316 316 316 316 316 315 315 315 315 314 313 311 308 305 296 289 285 280 275 270 267 264 259 253 251 249 249 248 246 243 240 239 239 238
312 313 313 314 314 314 315 315 314 314 313 312 312 312 311 311 310 309 307 306 305 302 300 296 290 283 278 274 269 267 263 259 257 253 251 250 249 248 245 241 241 240 239
310 310 311 311 311 311 311 311 312 312 311 310 309 309 307 306 305 304 302 300 298 296 293 290 287 284 279 274 269 265 262 260 257 254 254 252 249 248 248 246 244 242 241
308 308 308 309 309 308 308 308 308 308 308 307 306 305 303 301 300 299 297 295 292 291 288 285 282 280 278 274 269 264 260 258 256 254 255 253 249 248 248 248 246 244 244
307 308 309 309 309 308 307 306 305 305 305 304 302 301 300 298 296 294 292 290 288 286 284 281 278 276 273 271 268 264 259 256 255 254 255 253 251 249 248 248 246 246 245
306 307 307 308 308 308 308 307 305 304 302 301 300 299 298 296 293 291 289 287 285 283 280 277 274 272 270 268 266 263 259 257 255 254 254 253 252 249 249 249 247 247 245
306 307 308 307 307 307 307 307 306 304 301 299 298 297 295 293 291 289 286 284 282 280 278 275 272 269 267 264 263 261 258 256 254 252 250 252 252 251 250 249 247 246 246
306 307 308 308 307 307 307 306 305 304 302 299 298 296 294 292 289 286 284 282 281 278 275 272 270 267 264 262 261 259 257 254 253 252 249 250 251 251 250 249 247 247 246
305 307 307 307 307 306 306 305 304 303 302 300 299 297 294 292 290 286 283 280 279 277 274 270 267 264 262 260 258 257 255 253 252 252 250 249 250 250 251 250 249 248 247
306 306 307 307 306 306 306 305 304 303 302 301 299 296 294 292 289 287 283 279 276 274 272 270 265 261 260 259 257 255 253 252 251 251 249 248 248 248 249 249 250 250 249
307 306 307 306 306 306 305 305 305 304 303 301 299 296 293 291 289 285 282 278 274 272 271 269 265 261 259 257 256 254 253 252 251 250 248 247 247 247 247 247 248 248 249
306 306 306 306 306 306 306 306 305 304 303 301 298 295 292 289 288 284 280 276 273 271 269 267 264 261 258 256 255 253 251 251 251 250 248 247 247 247 247 246 246 247 248
306 305 306 306 306 306 306 306 305 304 303 301 298 295 292 289 286 283 280 276 273 270 267 265 263 259 257 255 254 253 250 249 249 249 248 248 247 247 247 247 246 247 247
305 305 305 306 305 306 306 306 305 304 302 300 297 295 292 289 285 282 279 276 274 270 266 263 261 258 255 253 251 249 248 247 247 248 248 247 246 246 245 245 245 245 246
305 305 305 305 305 305 306 306 305 303 302 300 298 295 292 289 285 282 279 276 273 269 265 262 260 256 253 251 248 246 245 245 245 245 246 246 245 245 245 245 246 246 246
304 304 304 305 305 306 306 305 305 304 303 301 299 296 292 289 286 282 279 275 272 268 266 263 258 255 253 250 247 245 243 242 242 243 243 244 244 244 243 244 244 245 247
304 304 304 304 305 306 306 305 304 303 303 302 299 296 293 290 286 282 278 274 271 267 264 263 259 254 251 249 247 244 242 242 241 240 241 242 242 242 243 243 243 244 245
304 304 304 305 305 305 305 304 304 303 302 301 300 297 294 290 286 281 277 273 270 267 264 262 259 254 249 246 244 241 240 241 240 238 239 240 241 241 241 242 243 243 244
305 305 305 305 304 304 304 303 303 302 301 300 299 297 295 291 287 282 277 274 270 267 263 261 259 253 247 245 242 239 239 239 239 238 237 239 240 240 240 240 241 241 243
305 305 305 305 304 303 303 303 302 301 300 298 297 296 294 292 288 284 278 274 270 267 263 259 257 252 246 242 240 238 237 238 237 237 235 236 237 238 238 239 239 240 241
305 305 305 305 304 303 302 302 301 300 299 297 296 295 294 291 288 284 278 275 271 266 262 259 256 252 246 240 239 238 236 236 235 235 234 234 235 235 236 237 238 238 240
304 305 305 305 304 303 303 302 301 300 298 296 295 295 294 292 289 284 278 274 270 264 260 257 254 248 243 238 237 236 234 232 233 233 231 232 232 233 234 235 236 237 239
304 304 304 305 305 304 304 303 302 300 298 296 295 295 294 292 288 284 278 273 269 262 258 255 251 245 240 238 236 234 231 230 230 229 229 230 230 231 232 233 234 236 237
303 303 304 304 304 305 305 304 303 301 299 297 295 295 294 292 289 283 277 272 267 262 257 252 247 242 239 237 234 232 229 229 228 227 227 228 229 229 230 231 231 233 236
Height
5837 5836 5835 5833 5831 5830 5828 5826 5824 5821 5819 5816 5814 5812 5809 5807 5804 5802 5800 5797 5795 5794 5792 5791 5790 5790 5789 5789 5789 5790 5790 5791 5792 5794 5795 5797 5799 5801 5803 5805 5808 5810 5813
5835 5833 5832 5830 5828 5826 5824 5822 5820 5818 5815 5813 5810 5808 5805 5803 5801 5799 5797 5795 5793 5791 5789 5788 5787 5787 5786 5786 5786 5786 5786 5787 5788 5789 5791 5792 5794 5796 5798 5800 5802 5805 5808
5831 5830 5828 5826 5824 5822 5820 5817 5815 5813 5810 5808 5806 5803 5801 5799 5797 5795 5793 5791 5789 5788 5786 5785 5784 5783 5783 5782 5782 5782 5783 5783 5784 5785 5786 5788 5789 5791 5793 5795 5797 5799 5802
5827 5825 5823 5822 5819 5817 5814 5812 5809 5807 5805 5802 5800 5798 5795 5793 5791 5789 5787 5786 5785 5783 5782 5781 5780 5779 5778 5778 5778 5778 5779 5779 5780 5781 5782 5783 5785 5786 5788 5789 5791 5794 5796
5822 5820 5818 5816 5814 5811 5808 5806 5803 5800 5798 5795 5793 5791 5789 5787 5785 5783 5781 5780 5778 5777 5777 5775 5774 5774 5773 5773 5773 5773 5774 5774 5775 5776 5777 5778 5779 5781 5783 5784 5786 5788 5790
5817 5815 5812 5810 5807 5805 5802 5799 5796 5793 5790 5788 5785 5783 5781 5779 5777 5775 5773 5772 5771 5770 5769 5769 5768 5768 5767 5767 5767 5767 5768 5769 5770 5770 5772 5773 5774 5775 5776 5778 5779 5782 5784
5810 5808 5805 5803 5800 5797 5794 5791 5788 5785 5782 5779 5776 5774 5772 5770 5767 5765 5764 5762 5762 5761 5761 5761 5761 5760 5760 5760 5760 5760 5761 5762 5763 5764 5765 5766 5768 5769 5770 5771 5773 5775 5778
5803 5800 5798 5795 5791 5788 5785 5781 5778 5775 5772 5769 5766 5763 5761 5759 5756 5754 5753 5752 5751 5751 5750 5750 5751 5751 5752 5752 5752 5753 5754 5755 5756 5757 5759 5760 5761 5763 5764 5765 5767 5769 5771
5796 5793 5789 5786 5782 5778 5774 5771 5767 5763 5760 5757 5754 5751 5749 5747 5744 5742 5740 5740 5739 5739 5739 5739 5740 5741 5742 5742 5743 5744 5746 5747 5748 5750 5751 5753 5754 5755 5757 5758 5760 5762 5764
5787 5783 5780 5776 5772 5767 5763 5759 5755 5751 5747 5744 5741 5738 5735 5733 5731 5729 5727 5727 5727 5727 5727 5728 5728 5729 5730 5731 5732 5734 5736 5739 5740 5742 5743 5745 5746 5748 5749 5751 5753 5755 5757
5778 5774 5769 5765 5760 5756 5751 5747 5742 5738 5734 5730 5727 5724 5721 5719 5717 5715 5713 5712 5713 5713 5713 5714 5715 5716 5717 5719 5720 5723 5726 5728 5730 5733 5735 5737 5739 5740 5742 5744 5745 5747 5749
5767 5763 5758 5753 5748 5743 5738 5733 5729 5724 5720 5716 5713 5710 5708 5705 5702 5700 5699 5698 5698 5698 5699 5700 5702 5703 5705 5707 5709 5712 5714 5717 5720 5723 5725 5728 5730 5732 5734 5735 5737 5739 5741
5756 5751 5746 5740 5735 5730 5725 5720 5715 5710 5706 5702 5698 5696 5693 5691 5688 5686 5684 5683 5683 5683 5684 5686 5688 5690 5691 5694 5697 5700 5703 5706 5709 5712 5716 5718 5721 5723 5725 5727 5729 5731 5733
5743 5738 5733 5728 5722 5717 5712 5707 5702 5697 5692 5688 5684 5681 5678 5676 5673 5670 5669 5668 5668 5669 5670 5671 5673 5676 5678 5681 5684 5688 5691 5695 5698 5702 5705 5708 5711 5713 5716 5718 5720 5722 5725
5731 5725 5720 5714 5709 5704 5699 5694 5689 5684 5678 5673 5669 5665 5662 5660 5658 5655 5653 5653 5653 5653 5654 5657 5659 5662 5665 5668 5672 5675 5679 5683 5687 5691 5694 5697 5700 5703 5706 5708 5711 5713 5716
5718 5712 5707 5701 5696 5691 5686 5681 5676 5670 5664 5658 5653 5649 5646 5643 5640 5639 5637 5637 5637 5638 5639 5641 5644 5647 5650 5654 5658 5662 5667 5671 5675 5679 5682 5686 5689 5692 5696 5699 5701 5704 5707
5704 5699 5694 5688 5683 5677 5672 5666 5662 5657 5651 5645 5639 5634 5630 5626 5624 5622 5621 5621 5621 5622 5623 5625 5628 5632 5635 5639 5644 5648 5653 5658 5662 5666 5671 5674 5678 5681 5685 5688 5691 5694 5697
5691 5685 5680 5674 5669 5663 5657 5652 5646 5640 5636 5630 5625 5619 5614 5611 5609 5607 5605 5605 5606 5607 5608 5610 5612 5616 5620 5624 5629 5633 5639 5643 5649 5654 5658 5662 5667 5670 5674 5678 5681 5684 5687
5678 5672 5666 5661 5655 5649 5642 5636 5630 5624 5619 5614 5609 5605 5600 5597 5594 5592 5590 5590 5591 5592 5593 5594 5596 5600 5604 5609 5614 5619 5624 5630 5635 5640 5645 5650 5655 5659 5663 5666 5670 5673 5676
5664 5658 5652 5646 5639 5633 5627 5621 5615 5609 5604 5598 5593 5589 5585 5581 5579 5578 5576 5575 5576 5576 5577 5578 5581 5584 5589 5593 5598 5604 5609 5615 5621 5626 5632 5637 5642 5647 5651 5655 5659 5662 5665
5649 5643 5637 5630 5624 5617 5611 5605 5599 5593 5588 5583 5579 5574 5569 5566 5564 5562 5561 5560 5560 5561 5562 5563 5565 5569 5573 5578 5583 5589 5595 5601 5607 5612 5618 5624 5629 5634 5639 5643 5647 5651 5654
5634 5627 5621 5614 5608 5602 5595 5589 5583 5578 5572 5568 5564 5559 5554 5550 5548 5546 5545 5544 5544 5544 5545 5547 5550 5553 5557 5562 5568 5574 5580 5586 5592 5598 5604 5610 5616 5621 5626 5631 5636 5640 5643
5618 5612 5605 5598 5592 5586 5580 5574 5568 5562 5557 5552 5547 5543 5539 5535 5532 5529 5528 5527 5527 5528 5529 5531 5534 5538 5542 5547 5552 5558 5565 5571 5578 5583 5590 5596 5602 5608 5614 5619 5624 5628 5632
5602 5596 5589 5582 5576 5570 5564 5558 5552 5547 5541 5536 5532 5528 5523 5519 5516 5514 5512 5512 5512 5513 5514 5516 5519 5523 5528 5532 5537 5543 5549 5556 5563 5569 5576 5582 5589 5595 5601 5607 5612 5617 5621
5586 5579 5573 5567 5560 5554 5548 5542 5537 5531 5526 5521 5516 5512 5508 5504 5501 5499 5498 5497 5498 5499 5501 5503 5506 5510 5514 5518 5524 5529 5535 5542 5548 5555 5562 5569 5576 5582 5588 5595 5600 5605 5610
5570 5563 5557 5551 5545 5539 5533 5527 5521 5516 5510 5506 5502 5498 5494 5490 5488 5485 5485 5484 5485 5486 5488 5491 5494 5498 5501 5506 5511 5517 5523 5529 5535 5543 5549 5556 5563 5570 5576 5582 5588 5594 5599